Raleigh, NC

6:59 PM EST on February 14, 2016 (GMT -0500)
Raleigh-Durham International

Weather History for KRDU - September, 2013

Change the Weather History Date:

Wednesday, September 11, 2013

  Actual Average Record
Temperature  
Mean Temperature 80 °F 74 °F  
Max Temperature 91 °F 84 °F 99 °F (2007)
Min Temperature 68 °F 64 °F 45 °F (1956)
Degree Days  
Heating Degree Days 0 0  
Month to date heating degree days 0 0  
Since 1 July heating degree days 0 1  
Cooling Degree Days 15 9  
Month to date cooling degree days 134 111  
Year to date cooling degree days 1440 1552  
Growing Degree Days 30 (Base 50)    
Moisture  
Dew Point 66 °F    
Average Humidity 69    
Maximum Humidity 90    
Minimum Humidity 47    
Precipitation  
Precipitation 0.00 in 0.15 in 1.48 in (1960)
Month to date precipitation 1.46 1.74  
Year to date precipitation 38.93 31.28  
Sea Level Pressure  
Sea Level Pressure 30.15 in    
Wind  
Wind Speed 5 mph (SSW)    
Max Wind Speed 14 mph    
Max Gust Speed 17 mph    
Visibility 9 miles    
Events      
T = Trace of Precipitation, MM = Missing Value Source: NWS Daily Summary

Daily Weather History Graph

Daily Weather History Graph

Search for Another Location

Airport or City:

Trip Planner

Search our weather history database for the weather conditions in past years. The results will help you decide how hot, cold, wet, or windy it might be!

Date:

Astronomy

Sep. 11, 2013 Rise Set
Actual Time 6:54 AM EDT 7:27 PM EDT
Civil Twilight 6:29 AM EDT 7:53 PM EDT
Nautical Twilight 5:58 AM EDT 8:23 PM EDT
Astronomical Twilight 5:27 AM EDT 8:54 PM EDT
Moon 1:08 PM EDT (9/11) 11:34 PM EDT (9/11)
Length of Visible Light 13h 24m
Length of Day
12h 33m
Waxing Crescent, 38% of the Moon is Illuminated
Sep 11
Waxing Crescent
Sep 12
First Quarter
Sep 19
Full
Sep 26
Last Quarter
Oct 4
New

Hourly Weather History & Observations

Time (EDT) Temp. Heat Index Dew Point Humidity Pressure Visibility Wind Dir Wind Speed Gust Speed Precip Events Conditions
12:51 AM 75.0 °F - 66.9 °F 76% 30.20 in 10.0 mi SW 5.8 mph - N/A   Partly Cloudy
1:51 AM 72.0 °F - 66.0 °F 81% 30.19 in 9.0 mi SW 3.5 mph - N/A   Partly Cloudy
2:51 AM 72.0 °F - 66.9 °F 84% 30.19 in 8.0 mi Calm Calm - N/A   Partly Cloudy
3:51 AM 70.0 °F - 66.0 °F 87% 30.18 in 7.0 mi South 3.5 mph - N/A   Partly Cloudy
4:51 AM 70.0 °F - 66.0 °F 87% 30.18 in 7.0 mi Calm Calm - N/A   Partly Cloudy
5:51 AM 69.1 °F - 66.0 °F 90% 30.19 in 7.0 mi Calm Calm - N/A   Partly Cloudy
6:51 AM 68.0 °F - 64.9 °F 90% 30.20 in 7.0 mi SW 3.5 mph - N/A   Scattered Clouds
7:51 AM 69.1 °F - 66.0 °F 90% 30.21 in 8.0 mi WSW 4.6 mph - N/A   Scattered Clouds
8:51 AM 73.9 °F - 68.0 °F 82% 30.21 in 9.0 mi SW 4.6 mph - N/A   Partly Cloudy
9:51 AM 79.0 °F - 66.9 °F 66% 30.21 in 10.0 mi SW 6.9 mph - N/A   Partly Cloudy
10:51 AM 81.0 °F 83.0 °F 66.0 °F 60% 30.21 in 10.0 mi SW 9.2 mph - N/A   Scattered Clouds
11:51 AM 84.0 °F 86.5 °F 66.9 °F 56% 30.19 in 10.0 mi SW 4.6 mph - N/A   Scattered Clouds
12:51 PM 87.1 °F 90.6 °F 68.0 °F 53% 30.17 in 10.0 mi SSW 6.9 mph - N/A   Scattered Clouds
1:51 PM 89.1 °F 92.1 °F 66.9 °F 48% 30.15 in 10.0 mi SSE 8.1 mph - N/A   Mostly Cloudy
2:51 PM 87.1 °F 89.2 °F 66.0 °F 49% 30.12 in 10.0 mi South 10.4 mph - N/A   Mostly Cloudy
3:51 PM 84.9 °F 88.2 °F 68.0 °F 57% 30.12 in 10.0 mi SSE 10.4 mph - N/A   Mostly Cloudy
4:51 PM 86.0 °F 87.3 °F 64.0 °F 48% 30.10 in 10.0 mi SSE 9.2 mph - N/A   Mostly Cloudy
5:51 PM 86.0 °F 87.6 °F 64.9 °F 49% 30.09 in 10.0 mi South 6.9 mph - N/A   Scattered Clouds
6:51 PM 84.0 °F 85.8 °F 64.9 °F 53% 30.09 in 10.0 mi SSE 4.6 mph - N/A   Scattered Clouds
7:51 PM 80.1 °F 82.1 °F 66.0 °F 62% 30.09 in 10.0 mi South 4.6 mph - N/A   Scattered Clouds
8:51 PM 77.0 °F - 66.0 °F 69% 30.09 in 10.0 mi Calm Calm - N/A   Scattered Clouds
9:51 PM 77.0 °F - 64.9 °F 66% 30.10 in 10.0 mi South 5.8 mph - N/A   Scattered Clouds
10:51 PM 75.0 °F - 66.0 °F 73% 30.10 in 10.0 mi South 5.8 mph - N/A   Scattered Clouds
11:51 PM 75.0 °F - 66.0 °F 73% 30.09 in 10.0 mi SSW 5.8 mph - N/A   Partly Cloudy